Location: Unspecified
(0.0000°N, 0.0000°E)
Time: 15:19:24
(UTC+00:00)

USA 389 - Visible Passes

Search period start: 15 June 2025 00:00
Search period end: 25 June 2025 00:00
Orbit: 575 x 578 km, 70.0° (Epoch: 14 August)

Date Brightness Start Highest point End Pass type
(mag) Time Alt. Az. Time Alt. Az. Time Alt. Az.
22 Jun ? 20:09:55 11° N 20:09:55 11° N 20:10:03 10° N visible
23 Jun ? 20:07:07 17° SW 20:09:47 35° WNW 20:13:39 10° N visible
24 Jun ? 18:33:11 10° SE 18:35:34 15° ESE 18:37:57 10° ENE visible
24 Jun ? 20:10:34 10° WSW 20:13:41 20° WNW 20:16:49 10° NNW visible
